Карточка аэропорта USPP

Внимание!
Информация на этой странице в стадии наполнения.
Если вы не увидели какой-то информации, или заметили неточность - пожалуйста сообщите нам!
Спасибо!
Команда RU-STAFF
Название аэропортаБольшое Савино
Название аэропорта (англ.)Bolshoe Savino
Превышение404 ft. (123.1 m.)
Координаты57°55.866', 56°1.6019999999999'
Высота перехода3700ft
Эшелон переходаQNH>1013:FL50; 1013>QNH>977:FL60; 977>QNH:FL70;
Коды ответчика5610-5617
Зона ОрВДЕкатеринбург РПИ (USSV)
Данные METARUSPP 160730Z 34003MPS 290V040 9999 SCT023 24/19 Q1014 R21/090060 NOSIG RMK QFE750
Проноз погоды (TAF)USPP 160455Z 1606/1706 31003G14MPS 9999 BKN040 TEMPO 1606/1615 35005G16MPS -TSRA BKN016CB BECMG 1615/1616 01003G13MPS
NOTAMshow/hide NOTAM
AWOS   TABLE

Информация о ВПП

ВПП Длина ВПП (м.) Покрытие Курс ВПП Частота ILS
213204Железобетон211109.9
033204Железобетон31 

Диспетчерские позиции

Позывной Наименование органа УВД Частота
USPP_APPПермь-Подход127.100
USPP_R_APPПермь-Круг121.700
USPP_TWRПермь-Старт124.000



Спутниковое изображение